Weather Roundup
Issued by NWS Springfield, MO

Home | Current Version | Previous Version | Text Only | Print | Product List | Glossary On
Versions: 1 2 3 4 5 6 7 8 9 10 11 12 13 14 15 16 17 18 19 20 21 22 23 24 25 26 27 28 29 30 31 32 33 34 35 36 37 38 39 40 41 42 43 44 45 46 47 48 49 50
000
NZUS99 KSGF 061657
HRRSGF

HOURLY WEATHER
NATIONAL WEATHER SERVICE SPRINGFIELD MO
1100 AM CST SAT FEB 06 2016

......SGF CWA......

CITY           SKY/WX    TMP DP  RH WIND       PRES   REMARKS
SPRINGFIELD    SUNNY     48  28  46 W7        30.32S
JOPLIN         SUNNY     48  31  51 W7        30.34S
WEST PLAINS    SUNNY     49  18  29 W9        30.35R
ROLLA          SUNNY     47  27  45 SW10      30.28F
BRANSON        SUNNY     46  23  39 NW7       30.35S

......SURROUNDING SGF CWA......

CITY           SKY/WX    TMP DP  RH WIND       PRES   REMARKS
CHANUTE        SUNNY     42  30  62 VRB7      30.35R
PARSONS        SUNNY     43  29  57 NW6       30.36R
COFFEYVILLE    SUNNY     44  29  55 NW5       30.36R
EMPORIA        SUNNY     39  31  72 CALM      30.33S
HARRISON AR    SUNNY     49  24  37 VRB6      30.35R

......KANSAS AND MISSOURI......

CITY           SKY/WX    TMP DP  RH WIND       PRES   REMARKS
KANSAS CTY INT MOSUNNY   41  31  67 W5        30.30S
SEDALIA        SUNNY     45  25  45 SW3       30.30S
ST JOSEPH      MOSUNNY   37  30  75 VRB3      30.30F
ST LOUIS       MOSUNNY   48  22  35 W10       30.31F
WICHITA        SUNNY     43  30  60 NW6       30.36R
TOPEKA         SUNNY     39  30  70 CALM      30.32F
OLATHE         SUNNY     40  30  67 VRB3      30.31R

......TENNESSEE......

CITY           SKY/WX    TMP DP  RH WIND       PRES   REMARKS
MEMPHIS        NOT AVBL
NASHVILLE      PTSUNNY   50  16  25 CALM      30.40F

......ARKANSAS.......

CITY           SKY/WX    TMP DP  RH WIND       PRES   REMARKS
FAYETTEVILLE   SUNNY     48  28  46 W6        30.35S
FT SMITH       SUNNY     47  19  33 CALM      30.39R
LITTLE ROCK    MOSUNNY   50  25  37 VRB5      30.39S

......OKLAHOMA.......

CITY           SKY/WX    TMP DP  RH WIND       PRES   REMARKS
TULSA          MOSUNNY   49  36  61 NW6       30.35S
PONCA CITY     SUNNY     41  34  76 VRB5      30.39R
MCALESTER      MOSUNNY   50  35  56 W6        30.39R
OKLAHOMA CITY  MOSUNNY   43  30  60 NW9       30.40R

......IOWA............

CITY           SKY/WX    TMP DP  RH WIND       PRES   REMARKS
DES MOINES     NOT AVBL
QUAD CITIES    SUNNY     38  23  55 W8        30.24F WCI  32

......ILLINOIS........

CITY           SKY/WX    TMP DP  RH WIND       PRES   REMARKS
QUINCY         SUNNY     42  25  50 SW5       30.26F
CHICAGO        PTSUNNY   35  25  66 W14       30.24F WCI  26



USA.gov is the U.S. government's official web portal to all federal, state and local government web resources and services.